Lid_Strength_Index
14 16 17 15 16 16 17 18 18 17 15 15 14 15 14 15 15 16 17 17 17 16 16 15 15 15 15 14 14 13 13 12 10 9 9 10 11 11 11 11 11 11 11 10
16 17 14 15 15 16 18 19 18 17 15 15 16 16 16 16 17 16 17 17 17 16 16 16 16 15 15 15 14 14 14 13 12 12 12 12 13 13 13 13 13 13 13 13
16 15 14 15 16 17 18 18 18 17 16 17 18 18 18 17 16 16 16 16 16 16 16 16 16 16 16 16 15 14 14 14 13 13 13 13 13 14 15 15 15 15 14 14
15 14 14 16 16 16 18 15 15 16 18 20 18 21 19 18 18 17 17 17 17 16 16 16 16 16 16 16 15 15 14 14 14 14 14 15 16 17 16 16 16 16 15 16
15 15 16 16 15 15 16 15 16 17 19 21 20 21 19 18 19 18 17 17 17 16 16 16 16 16 16 16 17 16 15 15 15 15 15 16 17 17 17 17 17 17 17 16
14 14 14 14 14 14 15 16 17 18 19 22 19 19 19 19 17 18 17 17 16 16 16 16 16 15 16 16 17 17 16 16 15 15 16 16 17 18 17 18 18 17 17 16
16 15 15 14 16 16 16 17 20 22 22 21 19 19 18 16 16 16 16 16 16 16 16 16 17 17 16 16 17 16 16 16 16 15 15 16 17 17 17 17 17 17 17 17
18 19 15 14 15 16 17 16 20 25 23 21 18 20 17 16 15 14 14 15 16 16 16 16 16 17 16 16 16 16 16 16 16 15 15 15 15 16 16 16 16 17 16 16
18 17 15 15 14 14 17 18 16 20 27 24 19 18 16 16 16 16 15 15 16 16 16 16 16 16 16 15 15 15 15 16 16 16 16 16 15 15 15 15 15 15 16 15
15 17 16 15 14 15 15 14 18 19 25 26 21 19 18 17 17 16 16 16 16 16 16 15 15 15 15 15 15 15 15 16 16 15 15 15 15 15 15 15 15 15 15 15
14 15 17 15 16 16 17 17 17 17 19 23 25 21 17 16 15 16 15 15 15 15 15 15 15 14 14 15 16 16 15 15 15 14 15 15 15 15 15 15 15 15 14 15
13 15 19 17 16 15 16 16 16 19 21 21 20 19 15 14 14 14 14 14 14 15 14 14 15 15 15 15 14 15 14 15 14 14 14 14 15 15 15 15 15 14 15 14
12 14 18 17 17 15 16 16 16 16 17 21 22 20 14 14 14 13 14 14 14 14 15 15 15 15 15 15 15 15 15 15 15 15 15 15 15 15 15 15 15 14 15 15
10 14 15 19 17 16 17 16 15 15 18 18 17 17 15 15 14 14 14 14 14 14 15 15 15 15 15 15 15 15 16 16 16 15 15 16 16 15 16 15 15 15 15 16
11 15 15 15 15 15 17 18 16 16 15 16 15 15 14 14 14 14 13 14 14 14 16 16 16 16 15 15 16 16 16 16 16 16 16 16 16 16 16 16 16 16 17 17
13 15 15 18 17 16 16 15 16 15 16 16 17 17 14 15 16 16 14 14 15 15 15 15 14 14 14 15 15 15 16 17 16 17 16 16 16 17 17 17 17 18 18 18
16 18 18 19 21 20 19 18 16 15 15 15 17 14 16 17 15 15 15 16 15 15 15 15 14 14 14 14 14 16 17 16 16 17 17 17 17 19 19 19 19 19 19 19
17 17 18 23 23 23 19 20 18 15 17 15 17 18 16 15 16 15 16 15 15 14 14 14 14 14 14 15 16 16 16 17 17 18 19 19 19 20 20 20 20 19 19 19
16 18 24 22 24 20 19 20 20 19 19 17 16 18 17 17 17 18 16 15 15 14 13 13 13 13 15 16 17 17 18 18 19 19 19 19 20 21 20 21 20 20 20 20
17 17 16 25 23 23 19 19 17 17 22 19 16 18 19 18 21 18 16 14 13 13 13 13 14 15 16 17 17 18 19 20 20 19 19 19 19 22 21 21 21 21 22 21
20 20 19 25 21 21 18 18 17 22 19 20 17 17 17 18 16 15 13 14 13 13 13 14 15 16 17 18 19 20 20 20 19 20 19 19 20 21 22 22 22 23 23 22
20 20 23 22 23 22 17 18 19 17 16 16 17 16 16 15 15 14 14 13 14 14 15 15 17 18 18 18 20 20 20 19 20 20 20 22 24 24 22 24 23 23 24 24
22 19 21 19 20 18 17 17 15 14 15 15 15 14 14 14 14 14 14 14 14 15 15 17 18 19 19 19 20 21 19 19 19 25 27 27 25 23 23 24 23 23 23 23
19 18 20 20 18 17 15 14 13 13 13 13 13 13 14 14 13 14 14 14 15 16 17 19 19 20 20 20 18 21 20 19 28 30 26 24 24 23 23 22 21 22 23 23
17 18 20 20 17 15 14 13 12 12 12 13 14 13 13 13 14 13 14 16 15 16 17 18 19 19 19 19 21 24 22 25 26 27 23 23 23 24 22 21 21 20 19 19
17 18 19 20 14 13 13 11 11 12 12 12 13 14 14 13 13 14 14 15 16 16 17 18 19 19 20 21 22 24 26 27 28 25 23 22 22 22 21 21 21 17 16 14